Salem, IL

3:29 AM CDT on August 29, 2016 (GMT -0500)
Salem-Leckrone

Weather History for KSLO - March, 2013

Change the Weather History Date:

Tuesday, March 19, 2013

  Actual Average Record
Temperature  
Mean Temperature 39 °F -  
Max Temperature 46 °F 55 °F 81 °F (2012)
Min Temperature 32 °F 35 °F 11 °F (1965)
Degree Days  
Heating Degree Days 26    
Moisture  
Dew Point 25 °F    
Average Humidity 60    
Maximum Humidity 76    
Minimum Humidity 39    
Precipitation  
Precipitation 0.00 in - - ()
Sea Level Pressure  
Sea Level Pressure 30.13 in    
Wind  
Wind Speed 11 mph (West)    
Max Wind Speed 18 mph    
Max Gust Speed 28 mph    
Visibility 10 miles    
Events      
Averages and records for this station are not official NWS values.
T = Trace of Precipitation, MM = Missing Value Source: NWS Daily Summary

Daily Weather History Graph

Daily Weather History Graph

Search for Another Location

Airport or City:

Trip Planner

Search our weather history database for the weather conditions in past years. The results will help you decide how hot, cold, wet, or windy it might be!

Date:

Astronomy

Mar. 19, 2013 Rise Set
Actual Time 7:00 AM CDT 7:07 PM CDT
Civil Twilight 6:34 AM CDT 7:33 PM CDT
Nautical Twilight 6:03 AM CDT 8:04 PM CDT
Astronomical Twilight 5:31 AM CDT 8:36 PM CDT
Moon 11:54 AM CDT (3/19) 1:50 AM CDT (3/19)
Length of Visible Light 12h 59m
Length of Day
12h 06m
Waxing Crescent, 50% of the Moon is Illuminated
Mar 19
Waxing Crescent
Mar 19
First Quarter
Mar 27
Full
Apr 2
Last Quarter
Apr 10
New

Hourly Weather History & Observations

Time (CDT) Temp. Windchill Dew Point Humidity Pressure Visibility Wind Dir Wind Speed Gust Speed Precip Events Conditions
12:15 AM 36.7 °F 29.9 °F 29.8 °F 76% 30.00 in 10.0 mi NW 9.2 mph - N/A   Clear
12:35 AM 36.5 °F 28.7 °F 29.1 °F 75% 30.00 in 10.0 mi NW 11.5 mph - N/A   Clear
12:55 AM 35.6 °F 27.5 °F 28.4 °F 75% 30.01 in 10.0 mi NW 11.5 mph - N/A   Clear
1:15 AM 35.8 °F 28.3 °F 26.8 °F 70% 30.01 in 10.0 mi NW 10.4 mph - N/A   Clear
1:35 AM 35.2 °F 25.8 °F 25.9 °F 69% 30.02 in 10.0 mi WNW 15.0 mph - N/A   Clear
1:55 AM 34.9 °F 24.9 °F 24.6 °F 66% 30.02 in 10.0 mi NW 16.1 mph 21.9 mph N/A   Clear
2:15 AM 34.7 °F 25.5 °F 23.4 °F 63% 30.02 in 10.0 mi WNW 13.8 mph 24.2 mph N/A   Clear
2:35 AM 33.8 °F 23.5 °F 22.1 °F 62% 30.03 in 10.0 mi WNW 16.1 mph 23.0 mph N/A   Clear
2:55 AM 33.3 °F 25.1 °F 21.7 °F 63% 30.04 in 10.0 mi WNW 10.4 mph - N/A   Clear
3:15 AM 33.1 °F 26.1 °F 22.1 °F 64% 30.04 in 10.0 mi WNW 8.1 mph - N/A   Clear
3:35 AM 32.5 °F 28.1 °F 23.4 °F 69% 30.05 in 10.0 mi West 4.6 mph - N/A   Clear
3:55 AM 32.4 °F 24.6 °F 23.9 °F 71% 30.05 in 10.0 mi West 9.2 mph - N/A   Clear
4:15 AM 32.7 °F 25.7 °F 23.0 °F 67% 30.04 in 10.0 mi West 8.1 mph - N/A   Clear
4:35 AM 32.4 °F 25.3 °F 23.0 °F 68% 30.04 in 10.0 mi West 8.1 mph - N/A   Clear
4:55 AM 32.0 °F 23.6 °F 23.0 °F 69% 30.05 in 10.0 mi West 10.4 mph - N/A   Clear
5:15 AM 32.5 °F 23.7 °F 22.3 °F 66% 30.05 in 10.0 mi West 11.5 mph - N/A   Clear
5:35 AM 32.2 °F 25.0 °F 23.4 °F 70% 30.06 in 10.0 mi West 8.1 mph - N/A   Clear
5:55 AM 32.2 °F 23.8 °F 23.5 °F 70% 30.06 in 10.0 mi WNW 10.4 mph - N/A   Clear
6:15 AM 32.2 °F 23.2 °F 22.6 °F 68% 30.06 in 10.0 mi WNW 11.5 mph - N/A   Clear
6:35 AM 32.2 °F 24.4 °F 22.6 °F 68% 30.07 in 10.0 mi West 9.2 mph - N/A   Clear
6:55 AM 32.2 °F 22.7 °F 22.8 °F 68% 30.07 in 10.0 mi West 12.7 mph - N/A   Clear
7:15 AM 32.0 °F 24.2 °F 23.4 °F 70% 30.08 in 10.0 mi West 9.2 mph - N/A   Clear
7:35 AM 32.0 °F 23.0 °F 22.8 °F 69% 30.08 in 10.0 mi West 11.5 mph 16.1 mph N/A   Clear
7:55 AM 32.0 °F 24.2 °F 23.0 °F 69% 30.09 in 10.0 mi WNW 9.2 mph - N/A   Clear
8:15 AM 32.9 °F 23.7 °F 22.8 °F 66% 30.10 in 10.0 mi West 12.7 mph - N/A   Clear
8:35 AM 33.8 °F 24.8 °F 23.0 °F 65% 30.11 in 10.0 mi West 12.7 mph - N/A   Clear
8:55 AM 33.8 °F 24.3 °F 21.2 °F 60% 30.11 in 10.0 mi West 13.8 mph 19.6 mph N/A   Clear
9:15 AM 34.0 °F 24.6 °F 21.6 °F 60% 30.12 in 10.0 mi West 13.8 mph - N/A   Clear
9:35 AM 34.7 °F 24.7 °F 21.6 °F 59% 30.13 in 10.0 mi West 16.1 mph - N/A   Clear
9:55 AM 34.9 °F 26.2 °F 22.6 °F 61% 30.14 in 10.0 mi West 12.7 mph - N/A   Clear
10:15 AM 35.4 °F 24.9 °F 22.5 °F 59% 30.15 in 10.0 mi West 18.4 mph 23.0 mph N/A   Clear
10:35 AM 35.6 °F 26.2 °F 23.0 °F 60% 30.17 in 10.0 mi West 15.0 mph 21.9 mph N/A   Clear
10:55 AM 37.4 °F 28.5 °F 23.0 °F 56% 30.18 in 10.0 mi West 15.0 mph 21.9 mph N/A   Clear
11:15 AM 37.4 °F 27.8 °F 23.7 °F 58% 30.19 in 10.0 mi West 17.3 mph - N/A   Clear
11:35 AM 38.5 °F 29.2 °F 25.7 °F 60% 30.19 in 10.0 mi West 17.3 mph - N/A   Clear
11:55 AM 38.8 °F 30.0 °F 24.3 °F 56% 30.20 in 10.0 mi West 16.1 mph 21.9 mph N/A   Clear
12:15 PM 40.1 °F 31.6 °F 27.0 °F 59% 30.20 in 10.0 mi West 16.1 mph 19.6 mph N/A   Clear
12:35 PM 40.3 °F 32.6 °F 25.9 °F 56% 30.20 in 10.0 mi West 13.8 mph - N/A   Clear
12:55 PM 42.8 °F 35.4 °F 26.6 °F 53% 30.20 in 10.0 mi West 15.0 mph 27.6 mph N/A   Clear
1:15 PM 41.9 °F 34.0 °F 24.3 °F 50% 30.20 in 10.0 mi West 16.1 mph 21.9 mph N/A   Clear
1:35 PM 42.8 °F 35.1 °F 25.9 °F 51% 30.20 in 10.0 mi West 16.1 mph 20.7 mph N/A   Clear
1:55 PM 43.2 °F 36.2 °F 24.4 °F 48% 30.20 in 10.0 mi West 13.8 mph - N/A   Clear
2:15 PM 43.7 °F 36.0 °F 25.9 °F 50% 30.19 in 10.0 mi West 17.3 mph 23.0 mph N/A   Clear
2:35 PM 44.4 °F 38.2 °F 26.1 °F 49% 30.19 in 10.0 mi West 12.7 mph - N/A   Clear
2:55 PM 45.1 °F 38.4 °F 26.1 °F 47% 30.18 in 10.0 mi NW 15.0 mph - N/A   Clear
3:15 PM 45.7 °F 40.6 °F 26.1 °F 46% 30.18 in 10.0 mi WNW 10.4 mph 18.4 mph N/A   Clear
3:35 PM 45.9 °F 41.7 °F 23.2 °F 41% 30.18 in 10.0 mi WNW 8.1 mph - N/A   Clear
3:55 PM 46.4 °F 40.4 °F 24.8 °F 43% 30.18 in 10.0 mi West 13.8 mph - N/A   Clear
4:15 PM 45.7 °F 39.8 °F 24.6 °F 44% 30.18 in 10.0 mi West 12.7 mph 16.1 mph N/A   Clear
4:35 PM 45.5 °F 39.2 °F 23.4 °F 42% 30.18 in 10.0 mi West 13.8 mph - N/A   Clear
4:55 PM 45.3 °F 39.7 °F 24.8 °F 45% 30.18 in 10.0 mi West 11.5 mph - N/A   Scattered Clouds
5:15 PM 44.6 °F 38.4 °F 24.8 °F 46% 30.18 in 10.0 mi West 12.7 mph - N/A   Scattered Clouds
5:35 PM 45.0 °F 40.6 °F 21.4 °F 39% 30.19 in 10.0 mi West 8.1 mph - N/A   Scattered Clouds
5:55 PM 44.8 °F 39.9 °F 22.8 °F 42% 30.19 in 10.0 mi West 9.2 mph - N/A   Scattered Clouds
6:15 PM 44.6 °F 40.7 °F 25.2 °F 46% 30.19 in 10.0 mi West 6.9 mph - N/A   Scattered Clouds
6:35 PM 44.2 °F 41.0 °F 22.1 °F 42% 30.19 in 10.0 mi West 5.8 mph - N/A   Mostly Cloudy
6:55 PM 43.7 °F 41.1 °F 26.8 °F 51% 30.20 in 10.0 mi West 4.6 mph - N/A   Scattered Clouds
7:15 PM 43.0 °F 41.3 °F 29.3 °F 59% 30.20 in 10.0 mi West 3.5 mph - N/A   Scattered Clouds
7:35 PM 42.8 °F 41.1 °F 29.8 °F 60% 30.20 in 10.0 mi West 3.5 mph - N/A   Scattered Clouds
7:55 PM 41.9 °F 39.0 °F 29.7 °F 62% 30.20 in 10.0 mi West 4.6 mph - N/A   Clear
8:15 PM 40.6 °F 38.6 °F 30.2 °F 66% 30.20 in 10.0 mi WSW 3.5 mph - N/A   Clear
8:35 PM 40.8 °F - 29.7 °F 64% 30.19 in 10.0 mi Calm Calm - N/A   Clear
8:55 PM 41.0 °F - 28.2 °F 60% 30.19 in 10.0 mi Calm Calm - N/A   Clear
9:15 PM 39.7 °F - 29.8 °F 68% 30.19 in 10.0 mi Calm Calm - N/A   Clear
9:35 PM 37.8 °F - 27.9 °F 67% 30.18 in 10.0 mi Calm Calm - N/A   Clear
9:55 PM 37.4 °F - 28.4 °F 70% 30.19 in 10.0 mi Calm Calm - N/A   Clear
10:15 PM 36.9 °F - 27.9 °F 70% 30.19 in 10.0 mi Calm Calm - N/A   Clear
10:35 PM 36.9 °F - 27.0 °F 67% 30.18 in 10.0 mi Calm Calm - N/A   Clear
10:55 PM 35.2 °F 32.4 °F 27.3 °F 73% 30.18 in 10.0 mi WSW 3.5 mph - N/A   Clear
11:15 PM 35.8 °F 31.9 °F 25.7 °F 67% 30.18 in 10.0 mi WSW 4.6 mph - N/A   Clear
11:35 PM 35.1 °F 31.0 °F 26.4 °F 71% 30.18 in 10.0 mi WSW 4.6 mph - N/A   Clear
11:55 PM 37.4 °F 33.8 °F 24.8 °F 60% 30.18 in 10.0 mi West 4.6 mph - N/A   Clear